This is the latest recevied weather packets stored in our database for station/object HF3P-11. If no packets are shown the sender has not sent any weather packets the latest 1 day(s).
| Time | Temp. | Humidity | Pressure | Rain* | Wind** | Luminosity | Snow |
|---|---|---|---|---|---|---|---|
| 1777998000 | 15.56° C | 71% | 1000.4 hPa | 0 mm | 3.58 m/s, 36° | - | - |
| 1777997701 | 15.56° C | 71% | 1000.4 hPa | 0 mm | 3.58 m/s, 30° | - | - |
| 1777997408 | 15.56° C | 71% | 1000.5 hPa | 0 mm | 3.58 m/s, 23° | - | - |
| 1777997101 | 15.56° C | 72% | 1000.4 hPa | 0 mm | 3.13 m/s, 13° | - | - |
| 1777996811 | 15.56° C | 72% | 1000.4 hPa | 0 mm | 2.68 m/s, 15° | - | - |
| 1777996508 | 15.56° C | 72% | 1000.5 hPa | 0 mm | 2.68 m/s, 24° | - | - |
| 1777996210 | 15.56° C | 71% | 1000.5 hPa | 0 mm | 2.68 m/s, 22° | - | - |
| 1777995908 | 15.56° C | 71% | 1000.5 hPa | 0 mm | 3.13 m/s, 21° | - | - |
| 1777995601 | 15.56° C | 71% | 1000.5 hPa | 0 mm | 3.13 m/s, 16° | - | - |
| 1777995301 | 15.56° C | 70% | 1000.7 hPa | 0 mm | 2.68 m/s, 20° | - | - |
| 1777995008 | 15.56° C | 70% | 1000.6 hPa | 0 mm | 3.13 m/s, 17° | - | - |
| 1777994708 | 16.11° C | 69% | 1000.8 hPa | 0 mm | 2.68 m/s, 13° | - | - |
| 1777994401 | 16.11° C | 69% | 1000.8 hPa | 0 mm | 2.68 m/s, 9° | - | - |
| 1777994104 | 16.11° C | 69% | 1000.9 hPa | 0 mm | 3.13 m/s, 6° | - | - |
| 1777993801 | 16.11° C | 69% | 1000.8 hPa | 0 mm | 3.13 m/s, 5° | - | - |
| 1777993500 | 16.67° C | 68% | 1000.7 hPa | 0 mm | 3.58 m/s, 3° | - | - |
| 1777993211 | 16.67° C | 68% | 1000.7 hPa | 0 mm | 3.58 m/s, 11° | - | - |
| 1777992901 | 17.22° C | 67% | 1000.9 hPa | 0 mm | 3.58 m/s, 15° | - | - |
| 1777992611 | 17.22° C | 67% | 1000.8 hPa | 0 mm | 3.58 m/s, 11° | - | - |
| 1777992301 | 17.78° C | 67% | 1000.9 hPa | 0 mm | 3.58 m/s, 16° | - | - |
| 1777992001 | 17.78° C | 66% | 1000.8 hPa | 0 mm | 4.02 m/s, 13° | - | - |
| 1777991700 | 17.78° C | 65% | 1000.7 hPa | 0 mm | 4.02 m/s, 9° | - | - |
| 1777991401 | 18.33° C | 65% | 1000.6 hPa | 0 mm | 4.47 m/s, 18° | - | - |
| 1777991101 | 18.33° C | 65% | 1000.7 hPa | 0 mm | 4.02 m/s, 20° | - | - |
| 1777990800 | 18.89° C | 65% | 1000.5 hPa | 0 mm | 4.47 m/s, 19° | - | - |
* Rain latest hour (hover to see other rain measurements)
** Current wind speed in m/s (hover to see current wind gust speed)